Portland Weather Center

Moon Phase Calendar



Online Cameras

 


      

Current Conditions in Portland
5/12/2021 3:24:56 AM

42°F
Feels Like 38
Clear
Humidity
65%
Pressure
29.91"
Wind
6.9 mph (WSW)
Dew Point
31°F
UV Index
0/10 (Low)
Visibility
6 mi

Hourly Forecast

Date & Time Wed, May 12
3:00 AM
Wed, May 12
4:00 AM
Wed, May 12
5:00 AM
Wed, May 12
6:00 AM
Wed, May 12
7:00 AM
Wed, May 12
8:00 AM
Wed, May 12
9:00 AM
Wed, May 12
10:00 AM
Wed, May 12
11:00 AM
Wed, May 12
12:00 PM
Wed, May 12
1:00 PM
Wed, May 12
2:00 PM
Wed, May 12
3:00 PM
Wed, May 12
4:00 PM
Wed, May 12
5:00 PM
Wed, May 12
6:00 PM
Wed, May 12
7:00 PM
Wed, May 12
8:00 PM
Wed, May 12
9:00 PM
Wed, May 12
10:00 PM
Wed, May 12
11:00 PM
Thu, May 13
12:00 AM
Thu, May 13
1:00 AM
Thu, May 13
2:00 AM
Thu, May 13
3:00 AM
Thu, May 13
4:00 AM
Thu, May 13
5:00 AM
Thu, May 13
6:00 AM
Thu, May 13
7:00 AM
Thu, May 13
8:00 AM
Thu, May 13
9:00 AM
Thu, May 13
10:00 AM
Thu, May 13
11:00 AM
Thu, May 13
12:00 PM
Thu, May 13
1:00 PM
Thu, May 13
2:00 PM
Thu, May 13
3:00 PM
Thu, May 13
4:00 PM
Thu, May 13
5:00 PM
Thu, May 13
6:00 PM
Thu, May 13
7:00 PM
Thu, May 13
8:00 PM
Thu, May 13
9:00 PM
Thu, May 13
10:00 PM
Thu, May 13
11:00 PM
Fri, May 14
12:00 AM
Fri, May 14
1:00 AM
Fri, May 14
2:00 AM
Condition
Clear

Clear

Clear

Clear

Clouds

Clouds

Clouds

Clouds

Clouds

Clouds

Clouds

Clouds

Clouds

Clouds

Rain

Rain

Clouds

Clouds

Clouds

Clouds

Clouds

Clouds

Clouds

Clouds

Clear

Clear

Clear

Clear

Clear

Clear

Clear

Clear

Clear

Clouds

Clouds

Clouds

Clouds

Clouds

Clouds

Clouds

Clouds

Clouds

Clouds

Clouds

Clouds

Clouds

Clouds

Clouds
Temperature 42°F42°F42°F41°F44°F48°F51°F54°F56°F58°F59°F57°F59°F59°F58°F57°F55°F53°F50°F49°F48°F47°F46°F45°F44°F44°F44°F44°F48°F52°F57°F59°F61°F61°F63°F63°F65°F64°F65°F64°F61°F57°F56°F56°F55°F54°F54°F53°F
Feels Like 36°F36°F36°F36°F39°F44°F49°F52°F54°F56°F56°F55°F56°F57°F55°F55°F53°F50°F48°F46°F45°F45°F44°F43°F42°F41°F41°F42°F46°F50°F54°F57°F59°F59°F61°F61°F62°F62°F62°F62°F59°F56°F54°F54°F53°F52°F52°F51°F
Cloudiness 1%2%3%5%17%33%100%70%63%70%73%78%99%73%82%78%68%58%11%20%18%17%15%14%2%6%7%8%8%8%6%6%6%28%42%52%97%98%90%74%66%57%16%54%68%75%80%83%
Visibility 6 mi6 mi6 mi6 mi6 mi6 mi6 mi6 mi6 mi6 mi6 mi6 mi6 mi6 mi6 mi6 mi6 mi6 mi6 mi6 mi6 mi6 mi6 mi6 mi6 mi6 mi6 mi6 mi6 mi6 mi6 mi6 mi6 mi6 mi6 mi6 mi6 mi6 mi6 mi6 mi6 mi6 mi6 mi6 mi6 mi6 mi6 mi6 mi
Precipitation 0%0%0%5%3%3%0%0%0%0%0%0%32%32%25%21%25%28%10%4%0%0%0%0%0%0%0%0%0%0%0%0%0%0%0%0%0%0%0%0%0%0%9%13%7%3%3%3%
Humidity 65%67%70%72%69%64%59%53%48%43%43%47%46%44%50%51%55%60%67%70%72%74%74%75%76%76%76%74%66%57%50%43%39%40%37%38%37%39%37%40%49%57%61%63%67%69%68%69%
Dew Point 31°F32°F32°F33°F34°F36°F37°F38°F37°F36°F36°F37°F38°F37°F39°F39°F39°F39°F40°F39°F39°F39°F38°F38°F37°F37°F37°F36°F37°F38°F38°F37°F35°F35°F35°F36°F37°F37°F37°F38°F41°F42°F42°F43°F44°F44°F43°F43°F
Pressure 29.91"29.91"29.91"29.91"29.94"29.97"29.97"30"30"30"30"30"30"30"30.03"30.06"30.06"30.09"30.12"30.12"30.12"30.12"30.12"30.12"30.12"30.12"30.12"30.15"30.15"30.15"30.15"30.15"30.12"30.12"30.12"30.09"30.09"30.06"30.06"30.06"30.06"30.09"30.12"30.12"30.12"30.12"30.12"30.09"
Wind Speed 10 mph9.1 mph8.5 mph7.6 mph7.8 mph9.5 mph9.6 mph9.3 mph8.9 mph7.2 mph5.7 mph6.6 mph8.2 mph7.6 mph8.1 mph7.6 mph6.4 mph6.1 mph6.2 mph6 mph5.3 mph4.6 mph4.6 mph4.8 mph5.1 mph4.9 mph4.5 mph4.2 mph4.6 mph5.5 mph6.1 mph6.5 mph5.6 mph6.2 mph4 mph3.6 mph6 mph7.3 mph7.3 mph7 mph6.1 mph6.6 mph8.1 mph8 mph7.7 mph7.3 mph8.5 mph6.9 mph
Wind
Direction
275°
W
278°
W
270°
W
275°
W
301°
WNW
316°
NW
327°
NNW
333°
NNW
336°
NNW
338°
NNW
325°
NW
320°
NW
328°
NNW
323°
NW
314°
NW
323°
NW
325°
NW
321°
NW
328°
NNW
337°
NNW
342°
NNW
335°
NNW
325°
NW
315°
NW
313°
NW
313°
NW
305°
NW
288°
WNW
288°
WNW
291°
WNW
294°
WNW
306°
NW
296°
WNW
307°
NW
304°
NW
299°
WNW
304°
NW
306°
NW
291°
WNW
282°
WNW
271°
W
282°
WNW
307°
NW
308°
NW
309°
NW
299°
WNW
290°
WNW
291°
WNW

Daily Forecast

Date High Low Precip. Humidity
Today
May 12

Rain
59 °F
41 °F
32%
43%
Thursday
May 13

Clouds
65 °F
44 °F
7%
40%
Friday
May 14

Clear
68 °F
50 °F
3%
42%
Saturday
May 15

Rain
63 °F
50 °F
80%
43%
Sunday
May 16

Rain
67 °F
50 °F
81%
46%
Monday
May 17

Clouds
56 °F
49 °F
42%
74%
Tuesday
May 18

Rain
67 °F
47 °F
69%
53%
Wednesday
May 19

Clouds
69 °F
50 °F
54%
43%
Thursday
May 20

Clouds
66 °F
51 °F
0%
53%
Friday
May 21

Rain
68 °F
57 °F
93%
97%
Saturday
May 22

Clouds
68 °F
55 °F
56%
67%
Sunday
May 23

Rain
56 °F
45 °F
99%
94%
Monday
May 24

Clear
65 °F
42 °F
0%
31%
Tuesday
May 25

Clear
69 °F
47 °F
0%
32%
Wednesday
May 26

Clouds
72 °F
51 °F
0%
32%
Thursday
May 27

Clear
76 °F
56 °F
0%
42%

Temperature 8-14 Day Outlook



Precipitation 8-14 Day Outlook




Quick Links
Portland News
Portland Photos
Portland Videos




About Us
Contact Us
Site Map
Search Site
Advertise With Us
   
Portland.USCoast.info
THE PORTLAND WEBSITE

Copyright 2021, Coastal Town
Privacy    |    Legal